THOR ABLESTAR DEB, 4014

Orbit data source: Space-Track

THOR ABLESTAR DEB, 4014 is space debris in LEO originally from a launch on Thu, 29 Jun 1961 UTC launched from the Air Force Eastern Test Range (AFETR). Debris objects in space refer to the collection of defunct objects orbiting the Earth. Examples of debris include non-operational satellites, rocket bodies, and fragments generated from explosions, collisions, or faulty payload assembly.

Loading next visibility...
Identifier
4014, 1961-015JM
Orbit
LEO
Country
Flag of USUS
Related business
Manufacturer
Unknown
Mission
Spacecraft
Bus & Motor
Unknown
Mass
Unknown
Launch date (UTC)
1961-06-29 (64 years ago)
Launch vehicle
Unknown
Launch site
Air Force Eastern Test Range (AFETR)
Object type
Payload
Rocket body
Debris
Shape & HBR
Unknown shape, 0.1 m
Radar Cross Section
Small (<0.1 m²)

Expand to show TLE details & history
Last TLE update: 9 hours ago

TLE from 9 hours ago
0 THOR ABLESTAR DEB
1  4014U 61015JM  25300.04745558  .00000033  00000-0  21794-3 0  9992
2  4014  67.6232 284.4571 0814101 138.7504 293.5227 12.30030788885699
Epoch: 2025-10-27T01:08Z
TLE epoch observation values (Epoch: 2025-10-27T01:08:20.162Z)
Latitude
55.87855°
Longitude
-91.08568°
Altitude
1,346.312 km
Speed
7.286 km/s
True Right ascension
21h 26m 36s
True Declination
55° 43' 51"
Sunlit
Object was in daylight at epoch
Visualization orbit readout
Latitude
Unknown
Longitude
Unknown
Altitude
Unknown
Speed
Unknown
Apparent Right ascension
Unknown
Apparent Declination
Unknown
Sunlit
N/A
Visualization observer readout
Local Sidereal Time
05:21:49
Azimuth
Unknown
Elevation
Unknown
Doppler factor
Unknown
Orbital elements
Apogee altitude
2,192.801 km
Perigee altitude
902.336 km
Semi-major axis
7,925.705 km
Eccentricity
0.08141
Inclination
67.6232°
RAAN
284.4571°
Arg. of periapsis
138.7504°
True anomaly
284.64338°
Mean anomaly
293.5227°
Eccentric anomaly
289.11544°
Mean motion
3.076 °/min
Orbital period
117.04 mins
BSTAR
0.00021794
Loading maneuver chart data...
Computing Atmospheric mass density...

Documentation

Showing up to 5 results
|